| time (UTC) | temp F | wind direction | speed knots | gust knots | rain 1hr in | rain 24hr in | rain mn in | humidity % | barometer mb |
| 20260506171811 | 63 | 157 | 0.9 | 1.7 | 0.00 | 0.00 | 0.00 | 70 | 1023.8 |
| 20260506170812 | 61 | 157 | 0.0 | 0.9 | 0.00 | 0.00 | 0.00 | 72 | 1023.8 |
| 20260506165811 | 60 | 157 | 0.0 | 0.9 | 0.00 | 0.00 | 0.00 | 74 | 1023.6 |
| 20260506164810 | 58 | 180 | 0.0 | 0.9 | 0.00 | 0.00 | 0.00 | 77 | 1023.6 |
| 20260506163827 | 56 | 180 | 0.0 | 0.9 | 0.00 | 0.00 | 0.00 | 79 | 1023.6 |
| 20260506162811 | 54 | 180 | 0.9 | 0.9 | 0.00 | 0.00 | 0.00 | 83 | 1023.4 |
| 20260506161811 | 52 | 180 | 0.9 | 0.9 | 0.00 | 0.00 | 0.00 | 88 | 1023.4 |
| 20260506160911 | 50 | 180 | 0.0 | 0.9 | 0.00 | 0.00 | 0.00 | 93 | 1023.4 |
| 20260506155912 | 47 | 180 | 0.0 | 0.9 | 0.00 | 0.00 | 0.00 | 95 | 1023.3 |
| 20260506154911 | 45 | 180 | 0.9 | 0.9 | 0.00 | 0.00 | 0.00 | 95 | 1023.3 |
| 20260506153911 | 44 | 180 | 0.0 | 0.9 | 0.00 | 0.00 | 0.00 | 95 | 1023.2 |
| 20260506152913 | 43 | 180 | 0.0 | 0.9 | 0.00 | 0.00 | 0.00 | 95 | 1023.0 |
| 20260506151910 | 42 | 180 | 0.0 | 0.9 | 0.00 | 0.00 | 0.00 | 95 | 1023.0 |
| 20260506150911 | 41 | 180 | 0.0 | 0.0 | 0.00 | 0.01 | 0.00 | 95 | 1023.0 |
| 20260506145912 | 41 | 180 | 0.0 | 0.9 | 0.00 | 0.01 | 0.00 | 95 | 1022.8 |
| 20260506144011 | 39 | 180 | 0.0 | 0.0 | 0.00 | 0.03 | 0.00 | 95 | 1022.8 |
| 20260506143110 | 39 | 180 | 0.0 | 0.0 | 0.00 | 0.04 | 0.00 | 95 | 1022.8 |
| 20260506142109 | 39 | 180 | 0.0 | 0.0 | 0.00 | 0.05 | 0.00 | 95 | 1022.5 |
| 20260506141111 | 38 | 180 | 0.0 | 0.0 | 0.00 | 0.06 | 0.00 | 95 | 1022.4 |
| 20260506141011 | 38 | 180 | 0.0 | 0.0 | 0.00 | 0.06 | 0.00 | 95 | 1022.4 |
| 20260506135110 | 38 | 180 | 0.0 | 0.0 | 0.00 | 0.06 | 0.00 | 95 | 1022.2 |
| 20260506134126 | 38 | 180 | 0.0 | 0.0 | 0.00 | 0.06 | 0.00 | 95 | 1022.1 |
| 20260506133212 | 38 | 180 | 0.0 | 0.0 | 0.00 | 0.06 | 0.00 | 95 | 1022.1 |
| 20260506132211 | 38 | 180 | 0.0 | 0.0 | 0.00 | 0.07 | 0.00 | 95 | 1022.1 |
| 20260506125310 | 39 | 180 | 0.0 | 0.0 | 0.00 | 0.08 | 0.00 | 95 | 1021.8 |
| 20260506124311 | 39 | 180 | 0.0 | 0.0 | 0.00 | 0.09 | 0.00 | 95 | 1021.8 |
| 20260506123410 | 39 | 180 | 0.0 | 0.0 | 0.00 | 0.09 | 0.00 | 95 | 1021.8 |
| 20260506122412 | 39 | 180 | 0.0 | 0.0 | 0.00 | 0.09 | 0.00 | 95 | 1021.8 |
| 20260506121412 | 40 | 180 | 0.0 | 0.0 | 0.00 | 0.09 | 0.00 | 95 | 1021.8 |
| 20260506120411 | 40 | 180 | 0.0 | 0.0 | 0.00 | 0.09 | 0.00 | 95 | 1021.6 |
| 20260506115412 | 40 | 180 | 0.0 | 0.0 | 0.00 | 0.09 | 0.00 | 95 | 1021.6 |
| 20260506113511 | 40 | 180 | 0.0 | 0.0 | 0.00 | 0.09 | 0.00 | 95 | 1021.7 |
| 20260506112610 | 40 | 180 | 0.0 | 0.0 | 0.00 | 0.09 | 0.00 | 95 | 1021.5 |
| 20260506111613 | 40 | 180 | 0.0 | 0.0 | 0.00 | 0.09 | 0.00 | 95 | 1021.6 |
| 20260506110612 | 40 | 180 | 0.0 | 0.0 | 0.00 | 0.09 | 0.00 | 95 | 1021.5 |
| 20260506105710 | 40 | 180 | 0.0 | 0.0 | 0.00 | 0.09 | 0.00 | 95 | 1021.5 |
| 20260506104710 | 40 | 180 | 0.0 | 0.0 | 0.00 | 0.09 | 0.00 | 95 | 1021.4 |
| 20260506103712 | 40 | 180 | 0.0 | 0.0 | 0.00 | 0.09 | 0.00 | 95 | 1021.5 |
| 20260506102811 | 40 | 180 | 0.0 | 0.0 | 0.00 | 0.09 | 0.00 | 95 | 1021.2 |
| 20260506101812 | 40 | 180 | 0.0 | 0.0 | 0.00 | 0.09 | 0.00 | 95 | 1021.2 |
| 20260506100813 | 41 | 180 | 0.0 | 0.0 | 0.00 | 0.10 | 0.00 | 95 | 1020.9 |
| 20260506095813 | 41 | 180 | 0.0 | 0.0 | 0.00 | 0.10 | 0.00 | 95 | 1020.9 |
| 20260506094910 | 41 | 180 | 0.0 | 0.0 | 0.00 | 0.10 | 0.00 | 95 | 1020.8 |
| 20260506093911 | 41 | 180 | 0.0 | 0.0 | 0.00 | 0.10 | 0.00 | 95 | 1020.6 |
| 20260506092911 | 41 | 180 | 0.0 | 0.0 | 0.00 | 0.10 | 0.00 | 95 | 1020.7 |
| 20260506091912 | 41 | 180 | 0.0 | 0.0 | 0.00 | 0.11 | 0.00 | 95 | 1020.8 |
| 20260506090910 | 41 | 180 | 0.0 | 0.0 | 0.00 | 0.11 | 0.00 | 95 | 1020.9 |
| 20260506085911 | 41 | 180 | 0.0 | 0.0 | 0.00 | 0.11 | 0.00 | 95 | 1020.9 |
| 20260506084009 | 41 | 180 | 0.0 | 0.0 | 0.00 | 0.12 | 0.00 | 95 | 1020.9 |
| 20260506083011 | 41 | 180 | 0.0 | 0.0 | 0.00 | 0.12 | 0.00 | 95 | 1021.0 |
| 20260506081012 | 42 | 180 | 0.0 | 0.0 | 0.00 | 0.14 | 0.00 | 95 | 1020.9 |
| 20260506073113 | 42 | 180 | 0.0 | 0.0 | 0.00 | 0.16 | 0.00 | 95 | 1020.5 |
| 20260506072210 | 42 | 180 | 0.0 | 0.9 | 0.00 | 0.17 | 0.00 | 94 | 1020.5 |
| 20260506071212 | 42 | 135 | 0.0 | 0.0 | 0.00 | 0.18 | 0.00 | 94 | 1021.1 |
| 20260506070212 | 42 | 45 | 0.0 | 0.0 | 0.00 | 0.18 | 0.00 | 94 | 1021.4 |
| 20260506061331 | 42 | 45 | 0.0 | 0.0 | 0.00 | 0.23 | 0.19 | 94 | 1020.3 |
| 20260506060333 | 42 | 45 | 0.0 | 0.0 | 0.00 | 0.23 | 0.19 | 94 | 1020.3 |
| 20260506050433 | 43 | 45 | 0.0 | 0.0 | 0.00 | 0.28 | 0.19 | 94 | 1019.7 |
| 20260506044432 | 43 | 45 | 0.0 | 0.0 | 0.00 | 0.28 | 0.19 | 94 | 1019.7 |
| 20260506043432 | 43 | 45 | 0.0 | 0.0 | 0.00 | 0.28 | 0.19 | 94 | 1019.5 |
| 20260506042530 | 43 | 45 | 0.0 | 0.0 | 0.00 | 0.28 | 0.19 | 94 | 1019.7 |
| 20260506041532 | 43 | 45 | 0.0 | 0.0 | 0.00 | 0.28 | 0.19 | 94 | 1019.6 |
| 20260506034632 | 43 | 45 | 0.0 | 0.0 | 0.00 | 0.28 | 0.19 | 94 | 1019.2 |
| 20260506032632 | 43 | 45 | 0.0 | 0.0 | 0.00 | 0.30 | 0.19 | 94 | 1018.7 |
| 20260506031631 | 43 | 45 | 0.0 | 0.0 | 0.00 | 0.30 | 0.19 | 94 | 1018.7 |
| 20260506030631 | 43 | 45 | 0.0 | 0.0 | 0.00 | 0.30 | 0.19 | 94 | 1018.7 |
| 20260506025632 | 43 | 45 | 0.0 | 0.0 | 0.00 | 0.30 | 0.19 | 94 | 1018.6 |
| 20260506024634 | 43 | 45 | 0.0 | 0.0 | 0.00 | 0.30 | 0.19 | 94 | 1018.6 |
| 20260506023634 | 43 | 45 | 0.0 | 0.0 | 0.00 | 0.30 | 0.19 | 94 | 1018.5 |
| 20260506022632 | 43 | 45 | 0.0 | 0.0 | 0.00 | 0.30 | 0.19 | 94 | 1018.3 |
| 20260506021730 | 43 | 45 | 0.0 | 0.0 | 0.00 | 0.30 | 0.19 | 94 | 1018.2 |
| 20260506020731 | 43 | 45 | 0.0 | 0.0 | 0.00 | 0.30 | 0.19 | 94 | 1018.3 |
| 20260506015731 | 44 | 45 | 0.0 | 0.0 | 0.00 | 0.30 | 0.19 | 94 | 1018.3 |
| 20260506014830 | 44 | 67 | 0.0 | 0.0 | 0.00 | 0.30 | 0.19 | 94 | 1018.2 |
| 20260506013832 | 44 | 135 | 0.0 | 0.0 | 0.00 | 0.30 | 0.19 | 94 | 1018.3 |
| 20260506012931 | 44 | 90 | 0.0 | 0.0 | 0.00 | 0.30 | 0.19 | 94 | 1018.3 |
| 20260506011933 | 44 | 157 | 0.0 | 0.0 | 0.00 | 0.30 | 0.19 | 94 | 1018.3 |
| 20260506010933 | 44 | 157 | 0.0 | 0.0 | 0.00 | 0.30 | 0.19 | 94 | 1018.1 |
| 20260506005933 | 43 | 157 | 0.0 | 0.0 | 0.00 | 0.30 | 0.19 | 94 | 1018.2 |
| 20260506005031 | 43 | 157 | 0.0 | 0.0 | 0.00 | 0.30 | 0.19 | 94 | 1018.0 |
| 20260506004033 | 43 | 157 | 0.0 | 0.0 | 0.00 | 0.30 | 0.19 | 93 | 1018.1 |
| 20260506003033 | 43 | 157 | 0.0 | 0.9 | 0.00 | 0.31 | 0.19 | 93 | 1018.0 |
| 20260506002031 | 43 | 157 | 0.0 | 0.0 | 0.00 | 0.31 | 0.19 | 93 | 1018.1 |
| 20260506001032 | 44 | 137 | 0.9 | 3.5 | 0.00 | 0.31 | 0.19 | 93 | 1017.9 |
| 20260506000034 | 44 | 157 | 0.0 | 0.0 | 0.00 | 0.31 | 0.19 | 92 | 1017.9 |
| 20260505235031 | 44 | 157 | 0.0 | 0.0 | 0.00 | 0.31 | 0.19 | 92 | 1017.8 |
| 20260505233035 | 45 | 225 | 0.9 | 2.6 | 0.00 | 0.31 | 0.19 | 91 | 1017.6 |
| 20260505232032 | 45 | 135 | 0.0 | 0.0 | 0.00 | 0.31 | 0.19 | 91 | 1017.4 |
| 20260505225032 | 45 | 157 | 0.0 | 0.9 | 0.00 | 0.31 | 0.19 | 91 | 1017.4 |
| 20260505224031 | 45 | 157 | 0.0 | 0.0 | 0.00 | 0.31 | 0.19 | 92 | 1017.3 |
| 20260505223034 | 45 | 135 | 0.0 | 0.0 | 0.00 | 0.32 | 0.19 | 92 | 1017.4 |
| 20260505222032 | 45 | 180 | 0.0 | 0.0 | 0.00 | 0.32 | 0.19 | 92 | 1017.4 |
| 20260505221031 | 45 | 180 | 0.0 | 0.0 | 0.00 | 0.33 | 0.19 | 92 | 1017.4 |
| 20260505220033 | 45 | 103 | 0.0 | 0.0 | 0.00 | 0.35 | 0.19 | 92 | 1017.4 |
| 20260505215030 | 44 | 214 | 0.0 | 0.0 | 0.00 | 0.37 | 0.19 | 91 | 1017.4 |
| 20260505214047 | 45 | 225 | 0.0 | 0.0 | 0.00 | 0.39 | 0.19 | 91 | 1017.4 |
| 20260505211031 | 44 | 135 | 0.9 | 1.7 | 0.00 | 0.43 | 0.19 | 91 | 1017.6 |
| 20260505210035 | 44 | 135 | 0.0 | 0.0 | 0.00 | 0.44 | 0.19 | 91 | 1017.6 |
| 20260505205033 | 45 | 46 | 0.0 | 0.0 | 0.00 | 0.45 | 0.19 | 90 | 1017.5 |
| 20260505204031 | 45 | 80 | 0.0 | 0.0 | 0.00 | 0.47 | 0.19 | 90 | 1017.3 |
| 20260505203035 | 45 | 45 | 0.0 | 0.9 | 0.00 | 0.49 | 0.19 | 90 | 1017.5 |
| 20260505202032 | 45 | 112 | 0.0 | 0.9 | 0.00 | 0.51 | 0.19 | 89 | 1017.3 |
| 20260505201032 | 45 | 265 | 0.0 | 0.9 | 0.00 | 0.51 | 0.19 | 89 | 1017.2 |
| 20260505200034 | 45 | 147 | 0.0 | 0.0 | 0.00 | 0.51 | 0.19 | 89 | 1017.3 |
| 20260505195033 | 45 | 180 | 0.0 | 0.0 | 0.00 | 0.51 | 0.19 | 89 | 1017.4 |
| 20260505194131 | 45 | 174 | 1.7 | 2.6 | 0.00 | 0.51 | 0.19 | 89 | 1017.4 |
| 20260505193132 | 45 | 157 | 0.0 | 0.0 | 0.00 | 0.51 | 0.19 | 90 | 1017.3 |
| 20260505192132 | 45 | 180 | 0.0 | 0.9 | 0.00 | 0.51 | 0.19 | 89 | 1017.2 |
| 20260505191232 | 45 | 149 | 0.0 | 0.0 | 0.00 | 0.51 | 0.19 | 88 | 1017.2 |
| 20260505190331 | 46 | 202 | 0.0 | 0.9 | 0.00 | 0.51 | 0.19 | 87 | 1017.0 |
| 20260505185333 | 47 | 136 | 1.7 | 3.5 | 0.00 | 0.51 | 0.19 | 87 | 1016.8 |
| 20260505184333 | 46 | 136 | 0.0 | 0.0 | 0.00 | 0.51 | 0.19 | 87 | 1017.0 |
| 20260505183331 | 46 | 247 | 0.0 | 0.0 | 0.00 | 0.51 | 0.19 | 88 | 1016.7 |
| 20260505181331 | 45 | 180 | 0.0 | 0.0 | 0.00 | 0.51 | 0.19 | 87 | 1016.6 |
| 20260505175332 | 45 | 157 | 0.0 | 0.0 | 0.00 | 0.51 | 0.19 | 88 | 1016.4 |
| 20260505173432 | 46 | 157 | 0.0 | 0.9 | 0.00 | 0.51 | 0.19 | 83 | 1016.2 |